Starlink 11558

operational
NORAD ID: 63055 Int'l Des: 2025-035 Owner: SPXS Country: US Constellation: starlink
LEOCIRCULAR

关于 Starlink 11558

正在加载描述...

实时位置

正在加载3D地球...

即将过境

高度历史

Altitude vs Time

uPlot chart will show altitude changes over time

两行轨道根数

1 63055U 25035D 25305.61972148 .00228541 00000-0 17364-2 0 9992
2 63055 42.9995 66.8728 0001591 255.5375 104.5316 15.70835153 40972
Epoch: Nov 1, 2025 • Age: 18 hours

当前状态

高度 355.3 km
速度 7.70 km/s
星下点 18.23°N, 98.57°W
发射日期 Feb 21, 2025
运行时间 0.6 years
类型 internet

技术详情

分类 Payload
质量 960.00 kg
干质量 910.00 kg
总质量 960.00 kg
长度 0.30 m
直径 4.10 m
跨度 29.00 m
形状 Box + pan
制造商 SPXS
平台类型 Starlink V2MD
阶段状态 In Orbit
所有者/国家 SPXS/US

大型星座

Loading constellations...